Year,Month,Day,Hour,Minute,Value (Times are PST for temperature in C)
2012,03,28,00,00,9.90
2012,03,28,00,01,10.10
2012,03,28,00,02,10.10
2012,03,28,00,03,10.10
2012,03,28,00,04,10.10
2012,03,28,00,05,10.10
2012,03,28,00,06,10.10
2012,03,28,00,07,10.10
2012,03,28,00,08,10.10
2012,03,28,00,09,10.10
2012,03,28,00,10,10.10
2012,03,28,00,11,10.10
2012,03,28,00,12,10.10
2012,03,28,00,13,10.10
2012,03,28,00,14,10.10
2012,03,28,00,15,10.10
2012,03,28,00,16,10.10
2012,03,28,00,17,10.00
2012,03,28,00,18,9.90
2012,03,28,00,19,9.90
2012,03,28,00,20,9.90
2012,03,28,00,21,9.90
2012,03,28,00,22,9.80
2012,03,28,00,23,9.80
2012,03,28,00,24,9.80
2012,03,28,00,25,9.70
2012,03,28,00,26,9.70
2012,03,28,00,27,9.70
2012,03,28,00,28,9.70
2012,03,28,00,29,9.70
2012,03,28,00,30,9.60
2012,03,28,00,31,9.60
2012,03,28,00,32,9.50
2012,03,28,00,33,9.50
2012,03,28,00,34,9.50
2012,03,28,00,35,9.40
2012,03,28,00,36,9.40
2012,03,28,00,37,9.40
2012,03,28,00,38,9.30
2012,03,28,00,39,9.30
2012,03,28,00,40,9.20
2012,03,28,00,41,9.20
2012,03,28,00,42,9.20
2012,03,28,00,43,9.20
2012,03,28,00,44,9.20
2012,03,28,00,45,9.10
2012,03,28,00,46,9.10
2012,03,28,00,47,9.10
2012,03,28,00,48,9.00
2012,03,28,00,49,9.00
2012,03,28,00,50,9.00
2012,03,28,00,51,9.00
2012,03,28,00,52,9.00
2012,03,28,00,53,8.90
2012,03,28,00,54,8.90
2012,03,28,00,55,8.90
2012,03,28,00,56,8.90
2012,03,28,00,57,8.80
2012,03,28,00,58,8.80
2012,03,28,00,59,8.80
2012,03,28,01,00,8.80
2012,03,28,01,01,8.70
2012,03,28,01,02,8.70
2012,03,28,01,03,8.70
2012,03,28,01,04,8.70
2012,03,28,01,05,8.70
2012,03,28,01,06,8.70
2012,03,28,01,07,8.70
2012,03,28,01,08,8.70
2012,03,28,01,09,8.70
2012,03,28,01,10,8.60
2012,03,28,01,11,8.60
2012,03,28,01,12,8.60
2012,03,28,01,13,8.50
2012,03,28,01,14,8.50
2012,03,28,01,15,8.50
2012,03,28,01,16,8.40
2012,03,28,01,17,8.40
2012,03,28,01,18,8.40
2012,03,28,01,19,8.40
2012,03,28,01,20,8.40
2012,03,28,01,21,8.30
2012,03,28,01,22,8.30
2012,03,28,01,23,8.30
2012,03,28,01,24,8.30
2012,03,28,01,25,8.30
2012,03,28,01,26,8.30
2012,03,28,01,27,8.20
2012,03,28,01,28,8.20
2012,03,28,01,29,8.20
2012,03,28,01,30,8.20
2012,03,28,01,31,8.20
2012,03,28,01,32,8.20
2012,03,28,01,33,8.20
2012,03,28,01,34,8.20
2012,03,28,01,35,8.20
2012,03,28,01,36,8.20
2012,03,28,01,37,8.20
2012,03,28,01,38,8.20
2012,03,28,01,39,8.10
2012,03,28,01,40,8.10
2012,03,28,01,41,8.10
2012,03,28,01,42,8.10
2012,03,28,01,43,8.10
2012,03,28,01,44,8.10
2012,03,28,01,45,8.10
2012,03,28,01,46,8.10
2012,03,28,01,47,8.10
2012,03,28,01,48,8.10
2012,03,28,01,49,8.10
2012,03,28,01,50,8.00
2012,03,28,01,51,8.00
2012,03,28,01,52,8.00
2012,03,28,01,53,8.00
2012,03,28,01,54,7.90
2012,03,28,01,55,7.90
2012,03,28,01,56,7.90
2012,03,28,01,57,7.90
2012,03,28,01,58,7.90
2012,03,28,01,59,7.80
2012,03,28,02,00,7.80
2012,03,28,02,01,7.80
2012,03,28,02,02,7.80
2012,03,28,02,03,7.80
2012,03,28,02,04,7.80
2012,03,28,02,05,7.80
2012,03,28,02,06,7.80
2012,03,28,02,07,7.80
2012,03,28,02,08,7.80
2012,03,28,02,09,7.80
2012,03,28,02,10,7.70
2012,03,28,02,11,7.70
2012,03,28,02,12,7.70
2012,03,28,02,13,7.60
2012,03,28,02,14,7.60
2012,03,28,02,15,7.60
2012,03,28,02,16,7.60
2012,03,28,02,17,7.60
2012,03,28,02,18,7.60
2012,03,28,02,19,7.50
2012,03,28,02,20,7.50
2012,03,28,02,21,7.50
2012,03,28,02,22,7.50
2012,03,28,02,23,7.50
2012,03,28,02,24,7.50
2012,03,28,02,25,7.40
2012,03,28,02,26,7.40
2012,03,28,02,27,7.40
2012,03,28,02,28,7.40
2012,03,28,02,29,7.40
2012,03,28,02,30,7.30
2012,03,28,02,31,7.30
2012,03,28,02,32,7.30
2012,03,28,02,33,7.30
2012,03,28,02,34,7.30
2012,03,28,02,35,7.20
2012,03,28,02,36,7.20
2012,03,28,02,37,7.10
2012,03,28,02,38,7.10
2012,03,28,02,39,7.00
2012,03,28,02,40,7.00
2012,03,28,02,41,7.00
2012,03,28,02,42,7.00
2012,03,28,02,43,7.00
2012,03,28,02,44,6.90
2012,03,28,02,45,6.90
2012,03,28,02,46,6.90
2012,03,28,02,47,6.90
2012,03,28,02,48,6.90
2012,03,28,02,49,6.90
2012,03,28,02,50,6.90
2012,03,28,02,51,6.80
2012,03,28,02,52,6.80
2012,03,28,02,53,6.80
2012,03,28,02,54,6.80
2012,03,28,02,55,6.80
2012,03,28,02,56,6.80
2012,03,28,02,57,6.80
2012,03,28,02,58,6.80
2012,03,28,02,59,6.70
2012,03,28,03,00,6.70
2012,03,28,03,01,6.70
2012,03,28,03,02,6.70
2012,03,28,03,03,6.60
2012,03,28,03,04,6.60
2012,03,28,03,05,6.60
2012,03,28,03,06,6.60
2012,03,28,03,07,6.60
2012,03,28,03,08,6.60
2012,03,28,03,09,6.60
2012,03,28,03,10,6.60
2012,03,28,03,11,6.60
2012,03,28,03,12,6.60
2012,03,28,03,13,6.60
2012,03,28,03,14,6.60
2012,03,28,03,15,6.60
2012,03,28,03,16,6.60
2012,03,28,03,17,6.60
2012,03,28,03,18,6.60
2012,03,28,03,19,6.60
2012,03,28,03,20,6.60
2012,03,28,03,21,6.60
2012,03,28,03,22,6.60
2012,03,28,03,23,6.60
2012,03,28,03,24,6.60
2012,03,28,03,25,6.60
2012,03,28,03,26,6.60
2012,03,28,03,27,6.60
2012,03,28,03,28,6.60
2012,03,28,03,29,6.60
2012,03,28,03,30,6.60
2012,03,28,03,31,6.60
2012,03,28,03,32,6.60
2012,03,28,03,33,6.60
2012,03,28,03,34,6.60
2012,03,28,03,35,6.60
2012,03,28,03,36,6.60
2012,03,28,03,37,6.60
2012,03,28,03,38,6.60
2012,03,28,03,39,6.60
2012,03,28,03,40,6.60
2012,03,28,03,41,6.60
2012,03,28,03,42,6.60
2012,03,28,03,43,6.60
2012,03,28,03,44,6.60
2012,03,28,03,45,6.60
2012,03,28,03,46,6.60
2012,03,28,03,47,6.60
2012,03,28,03,48,6.60
2012,03,28,03,49,6.60
2012,03,28,03,50,6.60
2012,03,28,03,51,6.60
2012,03,28,03,52,6.60
2012,03,28,03,53,6.60
2012,03,28,03,54,6.60
2012,03,28,03,55,6.60
2012,03,28,03,56,6.60
2012,03,28,03,57,6.60
2012,03,28,03,58,6.60
2012,03,28,03,59,6.60
2012,03,28,04,00,6.60
2012,03,28,04,01,6.60
2012,03,28,04,02,6.60
2012,03,28,04,03,6.60
2012,03,28,04,04,6.60
2012,03,28,04,05,6.60
2012,03,28,04,06,6.60
2012,03,28,04,07,6.60
2012,03,28,04,08,6.60
2012,03,28,04,09,6.60
2012,03,28,04,10,6.50
2012,03,28,04,11,6.40
2012,03,28,04,12,6.40
2012,03,28,04,13,6.40
2012,03,28,04,14,6.40
2012,03,28,04,15,6.40
2012,03,28,04,16,6.40
2012,03,28,04,17,6.40
2012,03,28,04,18,6.40
2012,03,28,04,19,6.40
2012,03,28,04,20,6.40
2012,03,28,04,21,6.40
2012,03,28,04,22,6.30
2012,03,28,04,23,6.30
2012,03,28,04,24,6.30
2012,03,28,04,25,6.30
2012,03,28,04,26,6.30
2012,03,28,04,27,6.30
2012,03,28,04,28,6.30
2012,03,28,04,29,6.20
2012,03,28,04,30,6.20
2012,03,28,04,31,6.20
2012,03,28,04,32,6.20
2012,03,28,04,33,6.20
2012,03,28,04,34,6.20
2012,03,28,04,35,6.20
2012,03,28,04,36,6.20
2012,03,28,04,37,6.20
2012,03,28,04,38,6.20
2012,03,28,04,39,6.10
2012,03,28,04,40,6.10
2012,03,28,04,41,6.10
2012,03,28,04,42,6.10
2012,03,28,04,43,6.00
2012,03,28,04,44,6.00
2012,03,28,04,45,6.00
2012,03,28,04,46,5.90
2012,03,28,04,47,5.90
2012,03,28,04,48,5.90
2012,03,28,04,49,5.90
2012,03,28,04,50,5.80
2012,03,28,04,51,5.80
2012,03,28,04,52,5.80
2012,03,28,04,53,5.80
2012,03,28,04,54,5.80
2012,03,28,04,55,5.70
2012,03,28,04,56,5.70
2012,03,28,04,57,5.70
2012,03,28,04,58,5.70
2012,03,28,04,59,5.70
2012,03,28,05,00,5.60
2012,03,28,05,01,5.60
2012,03,28,05,02,5.60
2012,03,28,05,03,5.50
2012,03,28,05,04,5.50
2012,03,28,05,05,5.50
2012,03,28,05,06,5.50
2012,03,28,05,07,5.40
2012,03,28,05,08,5.40
2012,03,28,05,09,5.40
2012,03,28,05,10,5.30
2012,03,28,05,11,5.30
2012,03,28,05,12,5.30
2012,03,28,05,13,5.30
2012,03,28,05,14,5.30
2012,03,28,05,15,5.30
2012,03,28,05,16,5.30
2012,03,28,05,17,5.30
2012,03,28,05,18,5.30
2012,03,28,05,19,5.30
2012,03,28,05,20,5.30
2012,03,28,05,21,5.30
2012,03,28,05,22,5.30
2012,03,28,05,23,5.30
2012,03,28,05,24,5.30
2012,03,28,05,25,5.30
2012,03,28,05,26,5.30
2012,03,28,05,27,5.30
2012,03,28,05,28,5.30
2012,03,28,05,29,5.30
2012,03,28,05,30,5.30
2012,03,28,05,31,5.30
2012,03,28,05,32,5.30
2012,03,28,05,33,5.30
2012,03,28,05,34,5.30
2012,03,28,05,35,5.40
2012,03,28,05,36,5.40
2012,03,28,05,37,5.40
2012,03,28,05,38,5.40
2012,03,28,05,39,5.40
2012,03,28,05,40,5.40
2012,03,28,05,41,5.40
2012,03,28,05,42,5.40
2012,03,28,05,43,5.40
2012,03,28,05,44,5.40
2012,03,28,05,45,5.50
2012,03,28,05,46,5.50
2012,03,28,05,47,5.50
2012,03,28,05,48,5.50
2012,03,28,05,49,5.50
2012,03,28,05,50,5.50
2012,03,28,05,51,5.50
2012,03,28,05,52,5.50
2012,03,28,05,53,5.50
2012,03,28,05,54,5.40
2012,03,28,05,55,5.40
2012,03,28,05,56,5.40
2012,03,28,05,57,5.40
2012,03,28,05,58,5.40
2012,03,28,05,59,5.30
2012,03,28,06,00,5.30
2012,03,28,06,01,5.30
2012,03,28,06,02,5.30
2012,03,28,06,03,5.30
2012,03,28,06,04,5.30
2012,03,28,06,05,5.30
2012,03,28,06,06,5.30
2012,03,28,06,07,5.30
2012,03,28,06,08,5.30
2012,03,28,06,09,5.30
2012,03,28,06,10,5.30
2012,03,28,06,11,5.30
2012,03,28,06,12,5.30
2012,03,28,06,13,5.30
2012,03,28,06,14,5.30
2012,03,28,06,15,5.30
2012,03,28,06,16,5.30
2012,03,28,06,17,5.30
2012,03,28,06,18,5.30
2012,03,28,06,19,5.30
2012,03,28,06,20,5.30
2012,03,28,06,21,5.30
2012,03,28,06,22,5.30
2012,03,28,06,23,5.30
2012,03,28,06,24,5.30
2012,03,28,06,25,5.30
2012,03,28,06,26,5.30
2012,03,28,06,27,5.30
2012,03,28,06,28,5.20
2012,03,28,06,29,5.20
2012,03,28,06,30,5.20
2012,03,28,06,31,5.20
2012,03,28,06,32,5.20
2012,03,28,06,33,5.20
2012,03,28,06,34,5.20
2012,03,28,06,35,5.20
2012,03,28,06,36,5.20
2012,03,28,06,37,5.20
2012,03,28,06,38,5.20
2012,03,28,06,39,5.10
2012,03,28,06,40,5.10
2012,03,28,06,41,5.10
2012,03,28,06,42,5.10
2012,03,28,06,43,4.90
2012,03,28,06,44,4.90
2012,03,28,06,45,4.90
2012,03,28,06,46,4.90
2012,03,28,06,47,4.90
2012,03,28,06,48,4.80
2012,03,28,06,49,4.80
2012,03,28,06,50,4.80
2012,03,28,06,51,4.80
2012,03,28,06,52,4.70
2012,03,28,06,53,4.70
2012,03,28,06,54,4.70
2012,03,28,06,55,4.70
2012,03,28,06,56,4.70
2012,03,28,06,57,4.60
2012,03,28,06,58,4.60
2012,03,28,06,59,4.60
2012,03,28,07,00,4.60
2012,03,28,07,01,4.60
2012,03,28,07,02,4.60
2012,03,28,07,03,4.60
2012,03,28,07,04,4.60
2012,03,28,07,05,4.60
2012,03,28,07,06,4.60
2012,03,28,07,07,4.60
2012,03,28,07,08,4.60
2012,03,28,07,09,4.60
2012,03,28,07,10,4.60
2012,03,28,07,11,4.50
2012,03,28,07,12,4.50
2012,03,28,07,13,4.50
2012,03,28,07,14,4.50
2012,03,28,07,15,4.50
2012,03,28,07,16,4.50
2012,03,28,07,17,4.50
2012,03,28,07,18,4.50
2012,03,28,07,19,4.50
2012,03,28,07,20,4.50
2012,03,28,07,21,4.50
2012,03,28,07,22,4.50
2012,03,28,07,23,4.50
2012,03,28,07,24,4.50
2012,03,28,07,25,4.50
2012,03,28,07,26,4.50
2012,03,28,07,27,4.50
2012,03,28,07,28,4.50
2012,03,28,07,29,4.50
2012,03,28,07,30,4.50
2012,03,28,07,31,4.50
2012,03,28,07,32,4.50
2012,03,28,07,33,4.40
2012,03,28,07,34,4.40
2012,03,28,07,35,4.40
2012,03,28,07,36,4.40
2012,03,28,07,37,4.40
2012,03,28,07,38,4.40
2012,03,28,07,39,4.40
2012,03,28,07,40,4.40
2012,03,28,07,41,4.40
2012,03,28,07,42,4.40
2012,03,28,07,43,4.40
2012,03,28,07,44,4.40
2012,03,28,07,45,4.40
2012,03,28,07,46,4.40
2012,03,28,07,47,4.50
2012,03,28,07,48,4.50
2012,03,28,07,49,4.50
2012,03,28,07,50,4.50
2012,03,28,07,51,4.50
2012,03,28,07,52,4.50
2012,03,28,07,53,4.50
2012,03,28,07,54,4.50
2012,03,28,07,55,4.50
2012,03,28,07,56,4.50
2012,03,28,07,57,4.50
2012,03,28,07,58,4.50
2012,03,28,07,59,4.50
2012,03,28,08,00,4.50
2012,03,28,08,01,4.50
2012,03,28,08,02,4.50
2012,03,28,08,03,4.60
2012,03,28,08,04,4.60
2012,03,28,08,05,4.60
2012,03,28,08,06,4.60
2012,03,28,08,07,4.60
2012,03,28,08,08,4.60
2012,03,28,08,09,4.60
2012,03,28,08,10,4.60
2012,03,28,08,11,4.60
2012,03,28,08,12,4.60
2012,03,28,08,13,4.60
2012,03,28,08,14,4.60
2012,03,28,08,15,4.60
2012,03,28,08,16,4.60
2012,03,28,08,17,4.60
2012,03,28,08,18,4.70
2012,03,28,08,19,4.70
2012,03,28,08,20,4.80
2012,03,28,08,21,4.80
2012,03,28,08,22,4.90
2012,03,28,08,23,4.90
2012,03,28,08,24,4.90
2012,03,28,08,25,4.90
2012,03,28,08,26,4.90
2012,03,28,08,27,5.00
2012,03,28,08,28,5.10
2012,03,28,08,29,5.10
2012,03,28,08,30,5.10
2012,03,28,08,31,5.10
2012,03,28,08,32,5.10
2012,03,28,08,33,5.10
2012,03,28,08,34,5.10
2012,03,28,08,35,5.10
2012,03,28,08,36,5.20
2012,03,28,08,37,5.20
2012,03,28,08,38,5.30
2012,03,28,08,39,5.30
2012,03,28,08,40,5.30
2012,03,28,08,41,5.30
2012,03,28,08,42,5.30
2012,03,28,08,43,5.30
2012,03,28,08,44,5.40
2012,03,28,08,45,5.40
2012,03,28,08,46,5.40
2012,03,28,08,47,5.40
2012,03,28,08,48,5.50
2012,03,28,08,49,5.50
2012,03,28,08,50,5.50
2012,03,28,08,51,5.50
2012,03,28,08,52,5.60
2012,03,28,08,53,5.60
2012,03,28,08,54,5.60
2012,03,28,08,55,5.70
2012,03,28,08,56,5.70
2012,03,28,08,57,5.70
2012,03,28,08,58,5.80
2012,03,28,08,59,5.90
2012,03,28,09,00,6.00
2012,03,28,09,01,6.00
2012,03,28,09,02,6.10
2012,03,28,09,03,6.20
2012,03,28,09,04,6.20
2012,03,28,09,05,6.30
2012,03,28,09,06,6.40
2012,03,28,09,07,6.60
2012,03,28,09,08,6.70
2012,03,28,09,09,6.80
2012,03,28,09,10,6.80
2012,03,28,09,11,7.00
2012,03,28,09,12,7.00
2012,03,28,09,13,7.10
2012,03,28,09,14,7.20
2012,03,28,09,15,7.30
2012,03,28,09,16,7.40
2012,03,28,09,17,7.50
2012,03,28,09,18,7.50
2012,03,28,09,19,7.60
2012,03,28,09,20,7.60
2012,03,28,09,21,7.70
2012,03,28,09,22,7.80
2012,03,28,09,23,7.90
2012,03,28,09,24,8.00
2012,03,28,09,25,8.00
2012,03,28,09,26,8.20
2012,03,28,09,27,8.20
2012,03,28,09,28,8.20
2012,03,28,09,29,8.30
2012,03,28,09,30,8.30
2012,03,28,09,31,8.20
2012,03,28,09,32,8.30
2012,03,28,09,33,8.30
2012,03,28,09,34,8.40
2012,03,28,09,35,8.50
2012,03,28,09,36,8.60
2012,03,28,09,37,8.70
2012,03,28,09,38,8.70
2012,03,28,09,39,8.70
2012,03,28,09,40,8.60
2012,03,28,09,41,8.60
2012,03,28,09,42,8.70
2012,03,28,09,43,8.70
2012,03,28,09,44,8.90
2012,03,28,09,45,9.00
2012,03,28,09,46,9.10
2012,03,28,09,47,9.30
2012,03,28,09,48,9.40
2012,03,28,09,49,9.50
2012,03,28,09,50,9.70
2012,03,28,09,51,9.80
2012,03,28,09,52,9.80
2012,03,28,09,53,9.80
2012,03,28,09,54,9.80
2012,03,28,09,55,9.80
2012,03,28,09,56,9.80
2012,03,28,09,57,9.90
2012,03,28,09,58,9.90
2012,03,28,09,59,10.00
2012,03,28,10,00,10.10
2012,03,28,10,01,10.20
2012,03,28,10,02,10.20
2012,03,28,10,03,10.30
2012,03,28,10,04,10.40
2012,03,28,10,05,10.40
2012,03,28,10,06,10.40
2012,03,28,10,07,10.40
2012,03,28,10,08,10.40
2012,03,28,10,09,10.40
2012,03,28,10,10,10.40
2012,03,28,10,11,10.40
2012,03,28,10,12,10.40
2012,03,28,10,13,10.40
2012,03,28,10,14,10.40
2012,03,28,10,15,10.40
2012,03,28,10,16,10.50
2012,03,28,10,17,10.40
2012,03,28,10,18,10.60
2012,03,28,10,19,10.50
2012,03,28,10,20,10.40
2012,03,28,10,21,10.40
2012,03,28,10,22,10.40
2012,03,28,10,23,10.30
2012,03,28,10,24,10.20
2012,03,28,10,25,10.10
2012,03,28,10,26,10.10
2012,03,28,10,27,10.00
2012,03,28,10,28,9.90
2012,03,28,10,29,9.80
2012,03,28,10,30,9.70
2012,03,28,10,31,9.70
2012,03,28,10,32,9.70
2012,03,28,10,33,9.60
2012,03,28,10,34,9.50
2012,03,28,10,35,9.50
2012,03,28,10,36,9.30
2012,03,28,10,37,9.20
2012,03,28,10,38,9.20
2012,03,28,10,39,9.10
2012,03,28,10,40,9.10
2012,03,28,10,41,9.00
2012,03,28,10,42,9.10
2012,03,28,10,43,9.10
2012,03,28,10,44,9.20
2012,03,28,10,45,9.20
2012,03,28,10,46,9.20
2012,03,28,10,47,9.20
2012,03,28,10,48,9.20
2012,03,28,10,49,9.20
2012,03,28,10,50,9.20
2012,03,28,10,51,9.20
2012,03,28,10,52,9.20
2012,03,28,10,53,9.20
2012,03,28,10,54,9.30
2012,03,28,10,55,9.30
2012,03,28,10,56,9.40
2012,03,28,10,57,9.50
2012,03,28,10,58,9.50
2012,03,28,10,59,9.60
2012,03,28,11,00,9.70
2012,03,28,11,01,9.70
2012,03,28,11,02,9.80
2012,03,28,11,03,9.80
2012,03,28,11,04,9.90
2012,03,28,11,05,9.90
2012,03,28,11,06,10.00
2012,03,28,11,07,10.10
2012,03,28,11,08,10.10
2012,03,28,11,09,10.10
2012,03,28,11,10,10.20
2012,03,28,11,11,10.20
2012,03,28,11,12,10.30
2012,03,28,11,13,10.30
2012,03,28,11,14,10.30
2012,03,28,11,15,10.30
2012,03,28,11,16,10.20
2012,03,28,11,17,10.20
2012,03,28,11,18,10.20
2012,03,28,11,19,10.20
2012,03,28,11,20,10.20
2012,03,28,11,21,10.20
2012,03,28,11,22,10.20
2012,03,28,11,23,10.30
2012,03,28,11,24,10.30
2012,03,28,11,25,10.30
2012,03,28,11,26,10.40
2012,03,28,11,27,10.40
2012,03,28,11,28,10.40
2012,03,28,11,29,10.50
2012,03,28,11,30,10.60
2012,03,28,11,31,10.60
2012,03,28,11,32,10.60
2012,03,28,11,33,10.70
2012,03,28,11,34,10.70
2012,03,28,11,35,10.80
2012,03,28,11,36,10.90
2012,03,28,11,37,10.90
2012,03,28,11,38,10.90
2012,03,28,11,39,11.00
2012,03,28,11,40,11.10
2012,03,28,11,41,11.20
2012,03,28,11,42,11.30
2012,03,28,11,43,11.30
2012,03,28,11,44,11.40
2012,03,28,11,45,11.40
2012,03,28,11,46,11.50
2012,03,28,11,47,11.40
2012,03,28,11,48,11.40
2012,03,28,11,49,11.50
2012,03,28,11,50,11.40
2012,03,28,11,51,11.40
2012,03,28,11,52,11.40
2012,03,28,11,53,11.50
2012,03,28,11,54,11.60
2012,03,28,11,55,11.70
2012,03,28,11,56,11.80
2012,03,28,11,57,11.80
2012,03,28,11,58,11.90
2012,03,28,11,59,12.00
2012,03,28,12,00,12.00
2012,03,28,12,01,12.10
2012,03,28,12,02,12.00
2012,03,28,12,03,12.00
2012,03,28,12,04,12.10
2012,03,28,12,05,12.10
2012,03,28,12,06,12.20
2012,03,28,12,07,12.20
2012,03,28,12,08,12.20
2012,03,28,12,09,12.20
2012,03,28,12,10,12.20
2012,03,28,12,11,12.30
2012,03,28,12,12,12.20
2012,03,28,12,13,12.20
2012,03,28,12,14,12.20
2012,03,28,12,15,12.20
2012,03,28,12,16,12.20
2012,03,28,12,17,12.30
2012,03,28,12,18,12.30
2012,03,28,12,19,12.30
2012,03,28,12,20,12.10
2012,03,28,12,21,12.00
2012,03,28,12,22,11.90
2012,03,28,12,23,11.80
2012,03,28,12,24,11.70
2012,03,28,12,25,11.70
2012,03,28,12,26,11.60
2012,03,28,12,27,11.50
2012,03,28,12,28,11.40
2012,03,28,12,29,11.50
2012,03,28,12,30,11.40
2012,03,28,12,31,11.40
2012,03,28,12,32,11.40
2012,03,28,12,33,11.40
2012,03,28,12,34,11.40
2012,03,28,12,35,11.40
2012,03,28,12,36,11.40
2012,03,28,12,37,11.40
2012,03,28,12,38,11.30
2012,03,28,12,39,11.20
2012,03,28,12,40,11.10
2012,03,28,12,41,11.10
2012,03,28,12,42,11.10
2012,03,28,12,43,11.10
2012,03,28,12,44,11.10
2012,03,28,12,45,11.10
2012,03,28,12,46,11.10
2012,03,28,12,47,11.10
2012,03,28,12,48,11.10
2012,03,28,12,49,11.10
2012,03,28,12,50,11.10
2012,03,28,12,51,11.10
2012,03,28,12,52,11.10
2012,03,28,12,53,11.10
2012,03,28,12,54,11.20
2012,03,28,12,55,11.20
2012,03,28,12,56,11.30
2012,03,28,12,57,11.30
2012,03,28,12,58,11.30
2012,03,28,12,59,11.30
2012,03,28,13,00,11.30
2012,03,28,13,01,11.30
2012,03,28,13,02,11.30
2012,03,28,13,03,11.20
2012,03,28,13,04,11.20
2012,03,28,13,05,11.20
2012,03,28,13,06,11.10
2012,03,28,13,07,11.10
2012,03,28,13,08,11.00
2012,03,28,13,09,10.90
2012,03,28,13,10,10.80
2012,03,28,13,11,10.70
2012,03,28,13,12,10.70
2012,03,28,13,13,10.70
2012,03,28,13,14,10.60
2012,03,28,13,15,10.60
2012,03,28,13,16,10.60
2012,03,28,13,17,10.50
2012,03,28,13,18,10.40
2012,03,28,13,19,10.40
2012,03,28,13,20,10.30
2012,03,28,13,21,10.20
2012,03,28,13,22,10.20
2012,03,28,13,23,10.20
2012,03,28,13,24,10.10
2012,03,28,13,25,10.10
2012,03,28,13,26,10.00
2012,03,28,13,27,9.90
2012,03,28,13,28,9.90
2012,03,28,13,29,9.90
2012,03,28,13,30,9.90
2012,03,28,13,31,9.90
2012,03,28,13,32,9.90
2012,03,28,13,33,10.00
2012,03,28,13,34,10.10
2012,03,28,13,35,10.20
2012,03,28,13,36,10.30
2012,03,28,13,37,10.30
2012,03,28,13,38,10.10
2012,03,28,13,39,10.00
2012,03,28,13,40,9.90
2012,03,28,13,41,9.80
2012,03,28,13,42,9.80
2012,03,28,13,43,9.70
2012,03,28,13,44,9.70
2012,03,28,13,45,9.80
2012,03,28,13,46,9.80
2012,03,28,13,47,9.80
2012,03,28,13,48,9.70
2012,03,28,13,49,9.80
2012,03,28,13,50,9.80
2012,03,28,13,51,9.90
2012,03,28,13,52,9.90
2012,03,28,13,53,9.90
2012,03,28,13,54,9.90
2012,03,28,13,55,9.90
2012,03,28,13,56,9.90
2012,03,28,13,57,10.00
2012,03,28,13,58,10.10
2012,03,28,13,59,10.10
2012,03,28,14,00,10.10
2012,03,28,14,01,10.10
2012,03,28,14,02,10.10
2012,03,28,14,03,10.20
2012,03,28,14,04,10.30
2012,03,28,14,05,10.40
2012,03,28,14,06,10.50
2012,03,28,14,07,10.60
2012,03,28,14,08,10.70
2012,03,28,14,09,10.80
2012,03,28,14,10,10.80
2012,03,28,14,11,10.90
2012,03,28,14,12,10.80
2012,03,28,14,13,10.80
2012,03,28,14,14,10.80
2012,03,28,14,15,10.80
2012,03,28,14,16,10.80
2012,03,28,14,17,10.90
2012,03,28,14,18,10.90
2012,03,28,14,19,10.90
2012,03,28,14,20,10.90
2012,03,28,14,21,10.90
2012,03,28,14,22,10.80
2012,03,28,14,23,10.80
2012,03,28,14,24,10.80
2012,03,28,14,25,10.80
2012,03,28,14,26,10.80
2012,03,28,14,27,10.80
2012,03,28,14,28,10.80
2012,03,28,14,29,10.80
2012,03,28,14,30,10.90
2012,03,28,14,31,10.80
2012,03,28,14,32,10.80
2012,03,28,14,33,10.80
2012,03,28,14,34,10.90
2012,03,28,14,35,11.00
2012,03,28,14,36,11.10
2012,03,28,14,37,11.10
2012,03,28,14,38,11.10
2012,03,28,14,39,11.10
2012,03,28,14,40,11.10
2012,03,28,14,41,11.10
2012,03,28,14,42,11.20
2012,03,28,14,43,11.20
2012,03,28,14,44,11.20
2012,03,28,14,45,11.20
2012,03,28,14,46,11.10
2012,03,28,14,47,11.20
2012,03,28,14,48,11.20
2012,03,28,14,49,11.10
2012,03,28,14,50,11.10
2012,03,28,14,51,11.10
2012,03,28,14,52,11.00
2012,03,28,14,53,10.90
2012,03,28,14,54,10.80
2012,03,28,14,55,10.80
2012,03,28,14,56,10.80
2012,03,28,14,57,10.70
2012,03,28,14,58,10.60
2012,03,28,14,59,10.60
2012,03,28,15,00,10.60
2012,03,28,15,01,10.40
2012,03,28,15,02,10.40
2012,03,28,15,03,10.40
2012,03,28,15,04,10.30
2012,03,28,15,05,10.20
2012,03,28,15,06,10.00
2012,03,28,15,07,9.80
2012,03,28,15,08,9.60
2012,03,28,15,09,9.30
2012,03,28,15,10,9.10
2012,03,28,15,11,8.90
2012,03,28,15,12,8.70
2012,03,28,15,13,8.60
2012,03,28,15,14,8.40
2012,03,28,15,15,8.40
2012,03,28,15,16,8.20
2012,03,28,15,17,8.20
2012,03,28,15,18,8.10
2012,03,28,15,19,8.10
2012,03,28,15,20,8.00
2012,03,28,15,21,8.00
2012,03,28,15,22,7.90
2012,03,28,15,23,7.90
2012,03,28,15,24,7.90
2012,03,28,15,25,7.80
2012,03,28,15,26,7.80
2012,03,28,15,27,7.80
2012,03,28,15,28,7.80
2012,03,28,15,29,7.80
2012,03,28,15,30,7.80
2012,03,28,15,31,7.80
2012,03,28,15,32,7.80
2012,03,28,15,33,7.80
2012,03,28,15,34,7.80
2012,03,28,15,35,7.90
2012,03,28,15,36,7.90
2012,03,28,15,37,8.00
2012,03,28,15,38,8.00
2012,03,28,15,39,8.00
2012,03,28,15,40,8.10
2012,03,28,15,41,8.20
2012,03,28,15,42,8.20
2012,03,28,15,43,8.20
2012,03,28,15,44,8.20
2012,03,28,15,45,8.20
2012,03,28,15,46,8.20
2012,03,28,15,47,8.30
2012,03,28,15,48,8.30
2012,03,28,15,49,8.30
2012,03,28,15,50,8.40
2012,03,28,15,51,8.30
2012,03,28,15,52,8.30
2012,03,28,15,53,8.30
2012,03,28,15,54,8.30
2012,03,28,15,55,8.30
2012,03,28,15,56,8.40
2012,03,28,15,57,8.40
2012,03,28,15,58,8.40
2012,03,28,15,59,8.30
2012,03,28,16,00,8.30
2012,03,28,16,01,8.30
2012,03,28,16,02,8.30
2012,03,28,16,03,8.30
2012,03,28,16,04,8.30
2012,03,28,16,05,8.30
2012,03,28,16,06,8.30
2012,03,28,16,07,8.40
2012,03,28,16,08,8.40
2012,03,28,16,09,8.50
2012,03,28,16,10,8.50
2012,03,28,16,11,8.60
2012,03,28,16,12,8.70
2012,03,28,16,13,8.70
2012,03,28,16,14,8.70
2012,03,28,16,15,8.70
2012,03,28,16,16,8.80
2012,03,28,16,17,8.80
2012,03,28,16,18,8.80
2012,03,28,16,19,8.80
2012,03,28,16,20,8.80
2012,03,28,16,21,8.90
2012,03,28,16,22,8.90
2012,03,28,16,23,9.00
2012,03,28,16,24,9.00
2012,03,28,16,25,9.10
2012,03,28,16,26,9.10
2012,03,28,16,27,9.10
2012,03,28,16,28,9.20
2012,03,28,16,29,9.20
2012,03,28,16,30,9.20
2012,03,28,16,31,9.30
2012,03,28,16,32,9.30
2012,03,28,16,33,9.40
2012,03,28,16,34,9.50
2012,03,28,16,35,9.50
2012,03,28,16,36,9.50
2012,03,28,16,37,9.50
2012,03,28,16,38,9.50
2012,03,28,16,39,9.50
2012,03,28,16,40,9.60
2012,03,28,16,41,9.60
2012,03,28,16,42,9.60
2012,03,28,16,43,9.70
2012,03,28,16,44,9.60
2012,03,28,16,45,9.60
2012,03,28,16,46,9.50
2012,03,28,16,47,9.50
2012,03,28,16,48,9.50
2012,03,28,16,49,9.60
2012,03,28,16,50,9.60
2012,03,28,16,51,9.60
2012,03,28,16,52,9.60
2012,03,28,16,53,9.60
2012,03,28,16,54,9.60
2012,03,28,16,55,9.50
2012,03,28,16,56,9.50
2012,03,28,16,57,9.50
2012,03,28,16,58,9.50
2012,03,28,16,59,9.50
2012,03,28,17,00,9.60
2012,03,28,17,01,9.60
2012,03,28,17,02,9.60
2012,03,28,17,03,9.60
2012,03,28,17,04,9.60
2012,03,28,17,05,9.60
2012,03,28,17,06,9.70
2012,03,28,17,07,9.70
2012,03,28,17,08,9.70
2012,03,28,17,09,9.70
2012,03,28,17,10,9.70
2012,03,28,17,11,9.70
2012,03,28,17,12,9.70
2012,03,28,17,13,9.70
2012,03,28,17,14,9.70
2012,03,28,17,15,9.70
2012,03,28,17,16,9.80
2012,03,28,17,17,9.80
2012,03,28,17,18,9.80
2012,03,28,17,19,9.80
2012,03,28,17,20,9.70
2012,03,28,17,21,9.70
2012,03,28,17,22,9.70
2012,03,28,17,23,9.60
2012,03,28,17,24,9.60
2012,03,28,17,25,9.60
2012,03,28,17,26,9.70
2012,03,28,17,27,9.60
2012,03,28,17,28,9.60
2012,03,28,17,29,9.60
2012,03,28,17,30,9.60
2012,03,28,17,31,9.60
2012,03,28,17,32,9.60
2012,03,28,17,33,9.60
2012,03,28,17,34,9.60
2012,03,28,17,35,9.60
2012,03,28,17,36,9.60
2012,03,28,17,37,9.70
2012,03,28,17,38,9.70
2012,03,28,17,39,9.70
2012,03,28,17,40,9.70
2012,03,28,17,41,9.70
2012,03,28,17,42,9.80
2012,03,28,17,43,9.80
2012,03,28,17,44,9.80
2012,03,28,17,45,9.80
2012,03,28,17,46,9.90
2012,03,28,17,47,9.90
2012,03,28,17,48,9.90
2012,03,28,17,49,9.90
2012,03,28,17,50,9.90
2012,03,28,17,51,9.90
2012,03,28,17,52,9.90
2012,03,28,17,53,9.90
2012,03,28,17,54,9.90